sat.trackr.live / text

‹ back to catalog

STARLINK-6331

NORAD 57351 · 2023-099Z

PAYLOAD ACTIVE UNKNOWN

§ Identity

Operator
Country
US
Launch date
2023-07-16
Launch site
AFETR
Launch vehicle
Mass (kg)
RCS (m²)

Purposes: comms

External: N2YO · Heavens-Above · Gunter

§ Orbital elements

Epoch: 2026-09-20T15:05:32.608896Z

Period
94.27 min
Inclination
43.0028°
Eccentricity
0.0000966
Mean motion
15.27571596 rev/d
Perigee alt
482.4 km
Apogee alt
483.7 km
Semi-major
6,861.2 km
B*
-2.8883e-5
RAAN
227.7549°
Arg perigee
278.4942°
Mean anomaly
81.5801°
Rev number
17,593

§ Raw data

STARLINK-63311 57351U 23099Z   26263.62884964 -.00001056  00000+0 -28883-4 0  99962 57351  43.0028 227.7549 0000966 278.4942  81.5801 15.27571596175939

JSON: /api/v1/satellites/57351 · /tle

For live sub-satellite position, see the globe view (requires WebGL).

§ Visibility from observer

Set your observer location to see the next 7 days of passes ≥ 10°. The values pass through the URL so the page stays shareable.

No JS? Fill the form by hand. The geolocation button needs JavaScript.